{"data":{"norad_id":64028,"epoch":"2026-05-25T02:38:50.133408Z","epoch_age_seconds":75577,"freshness":"FRESH","line1":"1 64028U 25102G   26145.11030247  .00006894  00000+0  58484-3 0  9994","line2":"2 64028  70.0022 281.5875 0002530 266.3181  93.7689 14.98343586 57506","mean_motion":14.98343586,"eccentricity":0.000253,"inclination_deg":70.0022,"raan_deg":281.5875,"arg_perigee_deg":266.3181,"mean_anomaly_deg":93.7689,"bstar":0.00058484,"rev_number":5750,"period_min":96.106127690261,"perigee_km":570.25548950554,"apogee_km":573.77226584964,"semimajor_km":6950.1508776776,"source":"CELESTRAK","updated_at":"2026-05-25T13:38:20.225356Z"}}